User: anonymous   Login
Location: Unspecified
(51.2667°N, 0.0000°E)
Time: 12:33:29
(UTC+00:00)
Language:

POLYITAN 1 - Orbit

View from above orbital plane
View from above orbital plane
View from above satellite
View from above satellite

Ground track
Ground track

The orbit data is extracted from the following two-line orbital elements,

1 40042U 14033AJ  19264.53730863  .00000224  00000-0  29966-4 0  9992
2 40042  97.9110 184.4202 0016044  96.4128 263.8916 14.88698468285344
Epoch (UTC): 21 September 2019 12:53:43
Eccentricity: 0.0016044
inclination: 97.9110°
perigee height: 591 km
apogee height: 613 km
right ascension of ascending node: 184.4202°
argument of perigee: 96.4128°
revolutions per day: 14.88698468
mean anomaly at epoch: 263.8916°
orbit number at epoch: 28534

The dashed part of the orbit path shows where the satellite is in the earth's shadow,  

DLR